SCP
0 0 0 0 0 0 0 0 0 0 0 0 0 0 0 0 0 0 0 1 2 2 3 3 3 4 4 3 3 3 3 2 2 2 2 1 1 1 2 2 2 1 1
0 0 0 0 0 0 0 0 0 0 0 0 0 0 0 0 0 0 0 1 1 2 3 3 4 4 4 4 3 3 3 3 3 3 2 2 2 2 2 2 2 2 2
0 0 0 0 0 0 0 0 0 0 0 0 0 0 0 0 1 1 1 0 1 1 2 3 4 5 5 4 4 4 3 4 4 4 3 3 3 3 3 2 2 2 2
0 0 0 0 0 0 0 0 0 0 0 0 0 0 0 0 1 1 1 0 0 1 1 1 3 4 5 4 4 4 4 4 5 5 4 4 4 4 3 3 3 2 2
0 0 0 0 0 0 0 0 0 0 0 0 0 0 0 0 0 0 0 0 0 0 0 0 1 2 3 4 3 3 3 4 5 5 5 4 4 4 4 3 3 3 3
0 0 0 0 0 0 0 0 0 0 0 0 0 0 0 0 0 0 0 0 0 0 0 0 0 0 1 2 2 2 3 4 5 5 5 4 4 4 4 3 3 3 3
0 0 0 0 0 0 0 0 0 0 0 0 0 0 0 0 0 0 0 0 0 0 0 0 0 0 0 0 1 1 2 3 4 5 4 4 4 4 3 3 3 3 3
0 0 0 0 0 0 0 0 0 0 0 0 0 0 0 0 0 0 0 0 0 0 0 0 0 0 0 0 0 1 1 1 2 3 4 5 5 4 3 2 3 3 3
0 0 0 0 0 0 0 0 0 0 0 0 0 0 0 0 0 0 0 0 0 0 0 0 0 0 0 0 0 0 1 1 1 2 3 3 4 3 3 2 2 2 2
0 0 0 0 0 0 0 0 0 0 0 0 0 0 0 0 0 0 0 0 0 0 0 0 0 0 0 0 0 0 1 1 1 1 1 2 2 2 2 2 1 1 1
0 0 0 0 0 0 0 0 0 0 0 0 0 0 0 0 0 0 0 0 0 0 0 0 0 0 0 0 0 0 0 0 0 0 1 1 1 1 2 2 1 1 1
0 0 0 0 0 0 0 0 0 0 0 0 0 0 0 0 0 0 0 0 0 0 0 0 0 0 0 0 0 0 0 0 0 0 0 0 1 1 1 1 1 1 1
0 0 0 0 0 0 0 0 0 0 0 0 0 0 0 0 0 0 0 0 0 0 0 0 0 0 0 0 0 0 0 0 0 0 0 0 0 1 1 1 1 1 1
0 0 0 0 0 0 0 0 0 0 0 0 0 0 0 0 0 0 0 0 0 0 0 0 0 0 0 0 0 0 0 0 0 0 0 0 0 0 0 0 1 1 1
0 0 0 0 0 0 0 0 0 0 0 0 0 0 0 0 0 0 0 0 0 0 0 0 0 0 0 0 0 0 0 0 0 0 0 0 0 0 0 0 0 0 0
0 0 0 0 0 0 0 0 0 0 0 0 0 0 0 0 0 0 0 0 0 0 0 0 0 0 0 0 0 0 0 0 0 0 0 0 0 0 0 0 0 0 0
0 0 0 0 0 0 0 0 0 0 0 0 0 0 0 0 0 0 0 0 0 0 0 0 0 0 0 0 0 0 0 0 0 0 0 0 0 0 0 0 0 0 0
0 0 0 0 0 0 0 0 0 0 0 0 0 0 0 0 0 0 0 0 0 0 0 0 0 0 0 0 0 0 0 0 0 0 0 0 0 0 0 0 0 0 0
0 0 0 0 0 0 0 0 0 0 0 0 0 0 0 0 0 0 0 0 0 0 0 0 0 0 0 0 0 0 0 0 0 0 0 0 0 0 0 0 0 0 0
0 0 0 0 0 0 0 0 0 0 0 0 0 0 0 0 0 0 0 0 0 0 0 0 0 0 0 0 0 0 0 0 0 0 0 0 0 0 0 0 0 0 0
0 0 0 0 0 0 0 0 0 0 0 0 0 0 0 0 0 0 0 0 0 0 0 0 0 0 0 0 0 0 0 0 0 0 0 0 0 0 0 0 0 0 0
0 0 0 0 0 0 0 0 0 0 0 0 0 0 0 0 0 0 0 0 0 0 0 0 0 0 0 0 0 0 0 0 0 0 0 0 0 0 0 0 0 0 0
0 0 0 0 0 0 0 0 0 0 0 0 0 0 0 0 0 0 0 0 0 0 0 0 0 0 0 0 0 0 0 0 0 0 0 0 0 0 0 0 0 0 0
0 0 0 0 0 0 0 0 0 0 0 0 0 0 0 0 0 0 0 0 0 0 0 0 0 0 0 0 0 0 0 0 0 0 0 0 0 0 0 0 0 0 0
0 0 0 0 0 0 0 0 0 0 0 0 0 0 0 0 0 0 0 0 0 0 0 0 0 0 0 0 0 0 0 0 0 0 0 0 0 0 0 0 0 0 0
0 0 0 0 0 0 0 0 0 0 0 0 0 0 0 0 0 0 0 0 0 0 0 0 0 0 0 0 0 0 0 0 0 0 0 0 0 0 0 0 0 0 0
Wind_Speed
0 1 1 1 1 1 2 2 3 4 4 4 3 3 3 3 3 4 4 10 12 12 13 14 12 11 11 11 10 9 9 9 9 10 10 10 10 9 8 7 7 7 7
1 2 1 1 1 1 1 1 2 2 2 2 3 3 3 3 2 2 3 5 10 12 14 14 14 13 13 12 11 11 12 12 12 11 12 12 12 12 11 10 9 8 7
3 3 3 2 2 1 1 1 1 1 1 2 3 4 3 3 3 4 4 4 6 9 13 14 15 14 13 14 14 13 13 13 13 14 13 13 14 14 14 13 12 11 9
5 4 3 2 3 2 2 1 2 2 3 4 4 4 4 4 5 5 6 6 5 5 8 13 14 15 14 14 14 15 13 13 13 13 14 15 15 15 16 16 14 13 12
5 4 3 3 3 3 3 3 3 3 4 5 4 3 4 3 3 5 5 5 3 3 3 6 9 11 12 13 13 13 14 13 13 13 14 16 16 16 16 17 16 15 14
7 5 4 5 4 4 4 4 4 4 3 3 3 3 3 1 2 2 2 2 1 2 2 2 2 4 8 10 10 10 11 12 13 13 15 17 16 16 17 18 18 17 15
7 6 5 5 5 5 5 5 3 3 3 3 2 3 3 2 2 1 2 3 3 3 4 4 3 3 4 9 10 10 10 10 12 13 15 16 15 16 18 18 18 17 16
7 7 7 6 5 4 6 5 4 2 2 3 2 2 3 3 2 2 3 4 4 4 6 8 7 5 5 4 8 14 12 10 10 11 13 14 13 14 18 19 18 17 16
8 7 6 5 5 4 3 3 3 2 2 2 1 1 2 4 3 3 4 3 5 6 8 9 10 8 8 7 8 12 14 11 10 10 11 13 11 10 13 17 17 17 18
7 6 5 5 4 4 4 4 4 3 2 2 2 1 2 2 4 4 3 4 6 7 9 9 10 10 10 8 10 15 16 12 10 10 11 13 12 9 9 12 13 15 19
5 5 5 4 4 3 3 4 4 3 2 2 2 2 2 2 3 4 7 6 7 7 8 9 8 8 9 8 7 11 15 13 10 10 11 12 14 12 10 11 14 18 21
3 4 3 3 2 2 2 3 3 3 2 2 2 2 2 3 4 5 7 9 9 8 9 8 8 8 7 6 8 15 16 14 12 11 12 13 14 14 13 13 13 16 19
2 2 2 1 1 1 1 1 2 2 1 2 2 3 4 5 6 6 8 8 9 7 7 6 7 7 7 6 7 15 14 14 14 13 14 14 15 14 12 11 11 12 13
2 2 2 1 1 1 1 1 1 2 1 3 5 5 6 7 7 6 6 7 9 8 7 8 6 6 6 6 9 14 9 14 16 15 15 15 14 11 8 7 7 8 9
2 3 3 2 2 2 2 1 2 3 3 4 5 7 7 7 7 7 7 7 7 9 10 9 6 5 6 6 9 8 8 13 17 17 17 16 13 10 8 8 8 9 10
3 3 4 3 4 5 5 4 4 4 4 5 5 7 7 7 7 7 7 7 7 9 10 8 8 9 10 9 10 8 9 17 16 15 13 10 9 8 8 9 11 12 13
4 4 5 4 5 6 6 5 6 7 7 7 7 8 10 10 8 7 7 7 8 8 10 10 9 9 11 11 9 8 8 8 7 8 5 4 3 5 8 10 12 14 17
5 5 5 5 6 7 7 7 9 8 7 8 9 9 11 9 11 9 8 9 8 8 7 10 9 8 10 10 9 9 9 7 5 3 3 4 5 7 9 12 14 17 20
6 7 6 6 7 7 7 8 9 8 7 7 8 10 12 12 12 10 11 10 8 7 7 8 9 7 7 7 9 10 9 5 3 1 2 3 6 9 12 14 17 20 22
7 8 8 8 7 6 7 7 6 5 5 7 9 11 12 13 13 13 11 10 8 7 7 8 9 9 9 9 7 8 6 3 2 1 1 3 6 10 13 16 19 23 25
8 8 8 8 6 5 4 3 2 4 6 9 10 12 12 17 19 14 10 8 7 7 7 8 10 10 10 8 7 5 5 2 2 1 2 3 4 5 8 13 19 25 31
8 8 8 6 5 3 5 8 7 4 7 10 12 12 13 14 15 16 17 15 14 11 10 11 11 12 13 10 7 5 3 3 3 2 1 2 3 6 7 8 20 32 33
6 6 5 5 4 2 5 9 15 9 10 11 12 12 11 12 15 11 14 17 16 19 19 15 15 15 14 10 7 6 5 3 2 1 1 3 3 5 7 12 28 33 19
5 5 6 6 4 6 10 12 18 11 11 12 12 12 12 13 12 12 12 13 14 14 15 12 13 14 13 8 6 4 5 5 4 1 0 2 3 4 7 11 24 29 13
6 5 5 6 7 8 13 15 17 10 10 13 12 11 12 11 14 16 13 12 14 13 13 14 12 6 5 5 7 6 6 4 2 1 0 1 3 4 5 10 16 26 23
5 6 6 7 7 8 13 15 17 8 10 11 11 11 14 13 14 15 11 10 12 12 11 9 5 8 9 9 9 5 4 3 2 1 1 1 2 3 4 7 11 13 16
Wind_Direction
191 99 54 2 339 324 302 306 321 331 332 329 322 316 314 309 304 302 307 320 327 326 319 309 300 282 268 266 264 261 261 256 249 237 230 228 229 232 237 237 234 234 237
105 93 70 45 23 19 3 329 330 327 319 317 318 318 304 297 284 298 321 336 347 348 343 337 329 316 300 286 276 267 261 256 252 245 235 227 225 225 223 222 224 227 231
86 87 74 52 23 30 62 72 18 312 308 322 320 318 317 326 343 360 12 10 3 2 1 354 347 340 325 307 292 279 272 268 257 249 243 234 227 226 222 218 217 216 214
75 76 65 34 8 23 35 34 14 350 359 354 338 335 343 344 3 25 33 26 14 6 359 356 350 343 335 324 311 300 291 281 271 260 252 244 234 228 225 218 213 208 204
64 71 62 33 22 37 29 18 34 33 18 357 338 347 346 346 26 55 47 29 7 348 341 346 351 344 338 334 328 319 309 298 288 277 265 255 244 233 226 218 212 208 205
57 59 58 42 43 50 37 31 49 52 34 347 334 331 303 293 131 99 51 10 293 294 285 278 296 311 322 322 326 325 320 317 309 298 283 268 254 242 234 223 213 208 207
53 52 51 42 41 51 46 37 44 50 25 355 359 330 313 285 192 143 11 326 293 285 272 268 272 287 298 308 318 319 322 327 329 318 302 288 269 253 245 232 217 209 206
47 54 51 48 42 47 43 36 33 20 357 15 14 322 317 311 280 331 326 301 310 313 309 306 300 291 299 302 311 314 309 312 320 326 318 307 286 265 250 236 222 215 210
58 56 54 55 47 46 34 20 25 26 329 320 302 268 294 285 305 286 290 318 326 319 316 312 302 298 303 303 302 301 294 291 299 309 317 318 303 273 251 235 226 224 222
47 45 41 41 37 30 18 356 14 353 334 318 317 322 270 277 290 302 291 297 303 305 305 303 304 303 300 297 292 292 286 285 293 297 298 302 301 285 250 226 222 238 242
32 33 37 36 34 27 21 17 11 4 351 327 323 322 318 304 260 282 293 295 298 292 293 294 294 296 296 292 290 294 293 293 294 295 294 293 290 282 261 233 216 225 235
5 11 30 36 32 21 11 3 356 356 356 345 331 315 297 291 297 289 291 298 297 294 293 286 286 289 288 286 291 308 305 298 292 291 293 290 286 279 268 254 241 236 234
325 330 352 3 359 335 325 333 334 340 355 346 318 299 285 278 277 281 286 291 289 293 287 278 276 278 282 290 299 307 307 307 302 292 289 291 289 285 280 273 264 258 254
262 274 287 283 285 300 302 303 299 294 306 310 308 298 291 287 280 274 274 286 293 290 286 287 289 265 277 292 295 303 300 303 301 293 286 282 276 272 274 282 284 280 275
274 296 305 316 307 291 279 262 250 268 285 285 292 296 295 289 283 275 267 264 271 286 292 292 288 271 284 291 290 295 292 295 296 292 286 276 258 245 248 260 268 268 267
302 306 297 297 290 276 264 259 266 269 273 277 282 294 298 298 291 279 268 263 253 264 277 283 280 285 293 292 295 300 300 302 300 300 297 279 247 241 255 265 268 266 262
303 291 273 273 277 269 260 255 259 264 265 278 290 297 302 305 298 287 273 263 257 256 270 280 278 282 285 282 288 294 295 291 289 303 330 349 321 286 284 283 281 276 271
282 279 278 275 274 269 259 251 259 264 264 278 291 298 299 302 299 293 280 271 266 254 259 277 281 281 278 277 281 286 285 280 268 285 331 327 313 298 288 281 276 272 267
278 277 267 261 266 269 269 264 263 269 270 277 289 294 293 294 293 289 284 280 274 265 258 276 286 285 280 274 278 276 269 253 235 241 312 315 308 298 289 282 276 270 264
266 271 268 265 270 280 283 283 281 275 282 292 295 293 290 287 285 284 283 281 282 283 284 287 289 288 280 274 262 266 262 212 198 186 284 292 300 301 295 290 284 277 269
267 269 275 281 291 299 307 333 335 314 307 306 303 299 295 294 288 286 290 295 300 293 290 287 286 285 280 271 256 247 247 171 169 202 263 280 295 296 299 296 291 286 278
285 286 282 290 311 345 36 20 353 318 311 309 306 305 304 300 300 303 306 307 300 291 287 282 280 276 275 268 253 235 194 163 190 184 252 284 295 295 302 298 303 303 288
312 322 336 352 357 351 2 352 340 332 316 310 304 303 304 304 306 296 298 302 295 284 280 278 273 269 268 261 236 213 186 171 153 129 222 278 298 306 316 319 327 327 313
16 16 17 12 353 327 332 335 338 332 318 308 303 299 296 296 295 294 297 295 290 287 285 280 267 263 259 248 214 182 142 117 100 73 358 284 313 314 328 335 341 349 18
26 14 4 4 357 342 339 337 340 325 314 309 306 301 296 293 293 296 299 296 295 297 301 299 300 282 238 171 137 126 134 134 128 133 327 293 317 320 338 350 350 5 39
14 1 359 356 352 343 335 332 332 319 311 310 308 303 299 296 298 304 303 297 297 305 314 323 8 55 72 84 85 96 118 119 118 141 234 309 344 350 358 356 360 10 32